User: anonymous   Login
Location: Étouvelles
(49.5207°N, 3.5808°E)
Time: 16:45:05
(UTC+00:00)
Language:

Okean O Rocket - Orbit

View from above orbital plane
View from above orbital plane
View from above satellite
View from above satellite

Ground track
Ground track

The orbit data is extracted from the following two-line orbital elements,

1 25861U 99039B   24110.88547430  .00002075  00000-0  28132-3 0  9992
2 25861  98.0949 156.4060 0014515 331.8182  28.2242 14.79956389334918
Epoch (UTC): 19 April 2024 21:15:04
Eccentricity: 0.0014515
inclination: 98.0949°
perigee height: 619 km
apogee height: 639 km
right ascension of ascending node: 156.4060°
argument of perigee: 331.8182°
revolutions per day: 14.79956389
mean anomaly at epoch: 28.2242°
orbit number at epoch: 33491

The dashed part of the orbit path shows where the satellite is in the earth's shadow,  

DLR